Date_and_time,latitude,longitude,wind_speed,RelWindDirFrom,WindDirFrom,air_pressure,air_temperature,relative_humidity,Temp,platform_speed_wrt_ground,air_pressure_at_mean_sea_level,platform_orientation
2018-11-05 00:00,50.6304466666667,-96.9807666666667,9.9,12.8,127,983.80,3.9,89,3.21,0.0,1011.16,360.0
2018-11-05 00:00,50.6304466666667,-96.9807666666667,7.2,10.6,127,983.80,4.0,89,3.20,0.0,1011.16,360.0
2018-11-05 00:10,50.6304466666667,-96.9807666666667,10.5,13.4,128,983.76,3.9,88,3.20,0.0,1011.13,360.0
2018-11-05 00:20,50.6304466666667,-96.9807666666667,10.4,14.2,129,983.69,3.7,87,3.20,0.0,1011.04,360.0
2018-11-05 00:30,50.6304433333333,-96.98077,10.4,13.7,132,983.61,3.6,87,3.20,0.0,1010.97,360.0
2018-11-05 00:40,50.6304483333333,-96.9807683333333,11.0,14.2,134,983.57,3.5,86,3.20,0.0,1010.94,360.0
2018-11-05 00:50,50.63045,-96.9807733333333,12.1,13.9,139,983.50,3.4,85,3.19,0.0,1010.87,360.0
2018-11-05 01:00,50.630455,-96.9807766666667,12.2,14.4,138,983.34,3.3,87,3.19,0.0,1010.70,345.5
2018-11-05 01:10,50.6304483333333,-96.9807783333333,11.6,14.5,134,983.18,3.3,89,3.19,0.0,1010.53,345.5
2018-11-05 01:20,50.63045,-96.9807733333333,11.2,15.0,129,983.03,3.6,89,3.18,0.0,1010.37,345.5
2018-11-05 01:30,50.63045,-96.9807783333333,12.6,15.2,124,982.87,3.7,91,3.18,0.0,1010.20,345.5
2018-11-05 01:40,50.63045,-96.9807766666667,13.1,15.2,126,982.73,3.6,92,3.16,0.0,1010.07,345.5
2018-11-05 01:50,50.63045,-96.9807766666667,11.5,15.1,133,982.69,3.3,89,3.16,0.0,1010.04,345.5
2018-11-05 02:00,50.6304516666667,-96.9807766666667,11.7,15.2,133,982.57,3.2,85,3.17,0.0,1009.92,347.4
2018-11-05 02:10,50.6304483333333,-96.9807633333333,11.0,13.8,135,982.59,3.1,86,3.17,0.0,1009.96,347.4
2018-11-05 02:20,50.6304483333333,-96.9807683333333,9.7,13.1,134,982.55,3.1,87,3.18,0.0,1009.92,347.4
2018-11-05 02:30,50.6304483333333,-96.9807666666667,9.7,12.8,130,982.49,3.4,90,3.17,0.0,1009.85,347.4
2018-11-05 02:40,50.6304483333333,-96.980765,11.9,14.3,124,982.35,3.6,89,3.17,0.0,1009.71,347.4
2018-11-05 02:50,50.6304466666667,-96.980765,11.7,14.0,121,982.32,3.6,90,3.16,0.0,1009.68,347.4
2018-11-05 03:00,50.630445,-96.9807666666667,11.7,14.9,122,982.29,3.5,90,3.15,0.0,1009.65,360.0
2018-11-05 03:10,50.630455,-96.980765,10.8,14.0,127,982.27,3.4,90,3.15,0.0,1009.62,360.0
2018-11-05 03:20,50.630455,-96.98078,10.2,13.5,133,982.25,3.2,87,3.15,0.0,1009.60,360.0
2018-11-05 03:30,50.6304533333333,-96.9807766666667,10.6,14.7,130,982.20,3.3,85,3.15,0.0,1009.55,360.0
2018-11-05 03:40,50.63043,-96.9807633333333,10.9,14.7,132,982.10,3.3,83,3.14,0.0,1009.47,360.0
2018-11-05 03:50,50.6304433333333,-96.9807716666667,12.1,16.4,135,981.99,3.2,81,3.14,0.0,1009.37,360.0
2018-11-05 04:00,50.630445,-96.9807716666667,13.3,16.9,136,981.92,3.1,80,3.15,0.0,1009.31,360.0
2018-11-05 04:10,50.630445,-96.9807716666667,12.5,16.9,138,981.87,2.8,82,3.14,0.0,1009.26,360.0
2018-11-05 04:20,50.6304466666667,-96.9807716666667,12.4,15.9,141,981.83,2.7,84,3.13,0.0,1009.21,360.0
2018-11-05 04:30,50.6304483333333,-96.9807766666667,12.8,15.0,143,981.79,2.6,83,3.12,0.0,1009.17,360.0
2018-11-05 04:40,50.6304516666667,-96.9807683333333,12.8,15.8,143,981.77,2.5,83,3.11,0.0,1009.15,360.0
2018-11-05 04:50,50.6304483333333,-96.9807666666667,11.8,14.5,140,981.75,2.4,84,3.11,0.0,1009.14,360.0
2018-11-05 05:00,50.630445,-96.9807716666667,12.5,15.2,137,981.68,2.3,84,3.10,0.0,1009.07,360.0
2018-11-05 05:10,50.6304433333333,-96.98077,12.7,15.8,137,981.61,2.2,85,3.10,0.0,1009.03,360.0
2018-11-05 05:20,50.6304416666667,-96.9807733333333,11.4,15.4,131,981.53,2.4,86,3.10,0.0,1008.92,360.0
2018-11-05 05:30,50.6304416666667,-96.9807716666667,11.7,15.8,129,981.37,2.6,86,3.09,0.0,1008.75,360.0
2018-11-05 05:40,50.6304416666667,-96.9807716666667,12.4,16.2,130,981.27,2.5,86,3.09,0.0,1008.66,360.0
2018-11-05 05:50,50.6304416666667,-96.9807716666667,11.7,15.5,134,981.30,2.3,86,3.08,0.0,1008.71,360.0
2018-11-05 06:00,50.6304416666667,-96.98077,11.7,16.7,132,981.38,2.3,85,3.07,0.0,1008.80,0.0
2018-11-05 06:10,50.6304416666667,-96.9807683333333,12.0,16.1,133,981.40,2.3,85,3.07,0.0,1008.83,0.0
2018-11-05 06:20,50.6304416666667,-96.9807683333333,11.2,16.2,134,981.40,2.2,86,3.06,0.0,1008.84,0.0
2018-11-05 06:30,50.6304416666667,-96.98077,10.5,14.7,130,981.37,2.3,87,3.06,0.0,1008.80,0.0
2018-11-05 06:40,50.6304416666667,-96.98077,10.7,14.2,130,981.31,2.3,87,3.05,0.0,1008.74,0.0
2018-11-05 06:50,50.6304416666667,-96.98077,11.0,14.5,136,981.27,2.0,86,3.04,0.0,1008.72,0.0
2018-11-05 07:00,50.6304416666667,-96.98077,12.5,14.7,139,981.32,1.8,85,3.04,0.0,1008.80,90.0
2018-11-05 07:10,50.6304416666667,-96.98077,11.7,14.2,138,981.38,1.8,86,3.04,0.0,1008.85,90.0
2018-11-05 07:20,50.6304416666667,-96.98077,10.0,11.5,140,981.34,1.7,88,3.03,0.0,1008.81,90.0
2018-11-05 07:30,50.6304416666667,-96.98077,9.9,11.5,142,981.27,1.6,87,3.02,0.0,1008.74,90.0
2018-11-05 07:40,50.6304416666667,-96.98077,8.1,11.0,147,981.22,1.5,89,3.02,0.0,1008.71,90.0
2018-11-05 07:50,50.6304416666667,-96.98077,7.9,10.1,146,981.20,1.5,90,3.01,0.0,1008.69,90.0
2018-11-05 08:00,50.630435,-96.980765,8.2,10.4,137,981.16,1.5,89,3.01,0.0,1008.64,131.7
2018-11-05 08:10,50.6304416666667,-96.980765,8.1,10.2,133,981.07,1.7,89,3.00,0.0,1008.54,131.7
2018-11-05 08:20,50.630445,-96.9807666666667,8.6,11.0,125,980.91,2.1,90,3.00,0.0,1008.36,131.7
2018-11-05 08:30,50.6304483333333,-96.98077,9.5,11.6,122,980.72,2.1,91,3.00,0.0,1008.16,131.7
2018-11-05 08:40,50.6304466666667,-96.98077,11.2,13.4,121,980.62,2.2,91,3.00,0.0,1008.07,131.7
2018-11-05 08:50,50.6304466666667,-96.9807666666667,11.3,13.4,122,980.56,2.2,91,3.00,0.0,1008.01,131.7
2018-11-05 09:00,50.6304466666667,-96.9807683333333,11.7,14.7,122,980.54,2.1,91,2.99,0.0,1008.00,360.0
2018-11-05 09:10,50.6304466666667,-96.9807683333333,12.3,14.9,122,980.52,2.1,91,2.98,0.0,1007.98,360.0
2018-11-05 09:20,50.6304483333333,-96.98077,11.4,13.7,120,980.47,2.0,93,2.97,0.0,1007.94,360.0
2018-11-05 09:30,50.6304483333333,-96.98077,11.3,13.9,123,980.37,2.0,93,2.96,0.0,1007.84,360.0
2018-11-05 09:40,50.6304383333333,-96.9807666666667,10.5,13.4,124,980.30,1.9,94,2.96,0.0,1007.77,360.0
2018-11-05 09:50,50.6304416666667,-96.980775,9.8,12.5,129,980.24,1.8,94,2.96,0.0,1007.72,360.0
2018-11-05 10:00,50.630435,-96.9807416666667,9.8,13.1,125,980.12,1.9,95,2.94,0.0,1007.58,111.5
2018-11-05 10:10,50.6304516666667,-96.980775,11.1,13.3,123,980.02,1.9,94,2.94,0.0,1007.46,111.5
2018-11-05 10:20,50.6304516666667,-96.98077,10.5,13.0,121,979.92,1.8,95,2.94,0.0,1007.36,111.5
2018-11-05 10:30,50.63045,-96.9807666666667,10.8,12.8,121,979.88,1.8,96,2.94,0.0,1007.32,111.5
2018-11-05 10:40,50.6304483333333,-96.98077,10.1,12.1,123,979.85,1.8,97,2.93,0.0,1007.29,111.5
2018-11-05 10:50,50.6304483333333,-96.9807683333333,11.0,13.6,117,979.77,1.8,96,2.92,0.0,1007.21,111.5
2018-11-05 11:00,50.63045,-96.9807683333333,11.0,13.1,120,979.83,1.8,96,2.91,0.0,1007.26,360.0
2018-11-05 11:10,50.6304516666667,-96.9807716666667,10.4,12.1,117,979.85,1.8,99,2.91,0.0,1007.29,360.0
2018-11-05 11:20,50.6304516666667,-96.9807733333333,10.7,12.9,118,979.79,1.8,98,2.91,0.0,1007.23,360.0
2018-11-05 11:30,50.6304383333333,-96.980785,10.4,12.5,115,979.76,1.7,99,2.91,0.0,1007.21,360.0
2018-11-05 11:40,50.6304416666667,-96.9807783333333,10.5,12.6,113,979.65,1.7,99,2.91,0.0,1007.11,360.0
2018-11-05 11:50,50.6304483333333,-96.9807733333333,11.1,13.0,113,979.55,1.7,99,2.90,0.0,1007.00,360.0
2018-11-05 12:00,50.63045,-96.9807716666667,11.2,13.3,110,979.47,1.7,99,2.89,0.0,1006.91,347.4
2018-11-05 12:10,50.63045,-96.9807683333333,11.6,13.6,113,979.39,1.7,99,2.88,0.0,1006.83,347.4
2018-11-05 12:20,50.630465,-96.9807716666667,11.7,13.8,106,979.29,1.7,99,2.87,0.0,1006.73,347.4
2018-11-05 12:30,50.63046,-96.9807683333333,12.5,14.6,108,979.25,1.7,99,2.86,0.0,1006.69,347.4
2018-11-05 12:40,50.6304566666667,-96.9807716666667,12.2,15.0,106,979.17,1.6,99,2.85,0.0,1006.61,347.4
2018-11-05 12:50,50.630455,-96.9807733333333,12.0,13.8,97,979.11,1.4,100,2.84,0.0,1006.56,347.4
2018-11-05 13:00,50.6304533333333,-96.9807733333333,12.5,14.6,98,979.05,1.2,100,2.83,0.0,1006.51,311.6
2018-11-05 13:10,50.6304533333333,-96.9807733333333,12.7,14.8,102,979.10,1.2,100,2.82,0.0,1006.57,311.6
2018-11-05 13:20,50.6304533333333,-96.9807733333333,13.6,15.7,105,979.05,1.2,100,2.81,0.0,1006.51,311.6
2018-11-05 13:30,50.6304533333333,-96.9807716666667,12.8,14.5,106,979.08,1.2,100,2.80,0.0,1006.55,311.6
2018-11-05 13:40,50.6304533333333,-96.9807716666667,12.2,13.9,112,979.05,1.2,100,2.79,0.0,1006.52,311.6
2018-11-05 13:50,50.6304533333333,-96.9807733333333,11.9,14.2,110,979.09,1.4,100,2.79,0.0,1006.54,311.6
2018-11-05 14:00,50.6304533333333,-96.9807733333333,12.0,14.4,108,979.11,1.4,100,2.78,0.0,1006.57,270.0
2018-11-05 14:10,50.6304566666667,-96.980785,12.0,14.2,108,979.10,1.3,100,2.78,0.0,1006.56,270.0
2018-11-05 14:20,50.6304516666667,-96.9807766666667,12.2,14.7,106,979.07,1.3,100,2.78,0.0,1006.54,270.0
2018-11-05 14:30,50.63045,-96.9807716666667,11.3,13.7,111,979.10,1.3,100,2.76,0.0,1006.57,270.0
2018-11-05 14:40,50.6304516666667,-96.9807716666667,11.0,13.1,118,979.06,1.3,100,2.75,0.0,1006.54,270.0
2018-11-05 14:50,50.63046,-96.980795,10.7,12.8,117,979.02,1.3,100,2.74,0.0,1006.50,270.0
2018-11-05 15:00,50.6304416666667,-96.9807766666667,9.4,11.3,120,979.03,1.4,100,2.74,0.0,1006.51,360.0
2018-11-05 15:10,50.6304533333333,-96.980765,8.4,10.3,124,979.01,1.5,100,2.74,0.0,1006.49,360.0
2018-11-05 15:20,50.6304533333333,-96.980765,8.1,10.8,129,978.94,1.4,100,2.74,0.0,1006.42,360.0
2018-11-05 15:30,50.6304533333333,-96.980765,9.0,10.9,127,978.91,1.5,100,2.75,0.0,1006.38,360.0
2018-11-05 15:40,50.6304516666667,-96.9807616666667,9.4,11.0,126,978.85,1.6,100,2.74,0.0,1006.31,360.0
2018-11-05 15:50,50.63045,-96.98076,8.8,10.6,129,978.89,1.6,100,2.74,0.0,1006.35,360.0
2018-11-05 16:00,50.63045,-96.9807633333333,8.1,11.0,129,978.84,1.5,99,2.74,0.0,1006.30,90.0
2018-11-05 16:10,50.63045,-96.9807633333333,7.7,9.7,139,978.79,1.1,99,2.74,0.0,1006.27,90.0
2018-11-05 16:20,50.63045,-96.9807633333333,7.5,9.1,145,978.74,1.1,99,2.74,0.0,1006.23,90.0
2018-11-05 16:30,50.6304516666667,-96.980765,6.0,7.4,158,978.78,1.2,99,2.74,0.0,1006.25,90.0
2018-11-05 16:40,50.63045,-96.980765,6.0,7.5,155,978.74,1.2,99,2.75,0.0,1006.22,90.0
2018-11-05 16:50,50.63046,-96.980775,6.8,8.2,134,978.83,1.4,99,2.75,0.0,1006.30,90.0
2018-11-05 17:00,50.6304566666667,-96.9807716666667,7.9,10.2,118,978.83,2.0,99,2.75,0.0,1006.27,0.0
2018-11-05 17:10,50.6304533333333,-96.98077,8.5,10.9,122,978.79,2.2,99,2.76,0.0,1006.22,0.0
2018-11-05 17:20,50.630455,-96.98077,9.1,11.2,116,978.79,2.3,99,2.76,0.0,1006.20,0.0
2018-11-05 17:30,50.630455,-96.98077,8.3,9.8,114,978.72,2.2,99,2.77,0.0,1006.13,0.0
2018-11-05 17:40,50.6304533333333,-96.9807666666667,8.0,9.4,120,978.64,2.1,99,2.77,0.0,1006.06,0.0
2018-11-05 17:50,50.6304533333333,-96.9807666666667,7.5,9.1,121,978.58,2.0,99,2.77,0.0,1006.00,0.0
2018-11-05 18:00,50.6304533333333,-96.9807683333333,8.2,10.8,121,978.52,2.1,99,2.77,0.0,1005.95,14.5
2018-11-05 18:10,50.6304533333333,-96.980775,10.1,11.8,115,978.40,2.1,99,2.79,0.0,1005.84,14.5
2018-11-05 18:20,50.6304366666667,-96.9807666666667,9.8,11.3,116,978.36,2.1,99,2.80,0.0,1005.79,14.5
2018-11-05 18:30,50.630455,-96.980775,10.0,12.3,110,978.32,2.1,99,2.81,0.0,1005.75,14.5
2018-11-05 18:40,50.6304516666667,-96.98077,10.1,12.5,112,978.27,2.1,99,2.82,0.0,1005.68,14.5
2018-11-05 18:50,50.63045,-96.9807716666667,10.3,12.3,113,978.30,2.2,99,2.82,0.0,1005.69,14.5
2018-11-05 19:00,50.6304483333333,-96.98077,10.1,12.1,113,978.30,2.1,99,2.83,0.0,1005.67,360.0
2018-11-05 19:10,50.6304483333333,-96.98077,10.5,12.2,110,978.19,2.2,99,2.84,0.0,1005.55,360.0
2018-11-05 19:20,50.6304466666667,-96.98077,9.7,11.7,106,978.04,2.3,99,2.85,0.0,1005.39,360.0
2018-11-05 19:30,50.6304516666667,-96.98077,8.9,10.5,108,977.95,2.4,98,2.86,0.0,1005.31,360.0
2018-11-05 19:40,50.6304516666667,-96.9807733333333,8.3,9.6,112,977.90,2.2,99,2.86,0.0,1005.26,360.0
2018-11-05 19:50,50.6304533333333,-96.9807733333333,7.7,9.9,105,977.76,2.3,99,2.87,0.0,1005.12,360.0
2018-11-05 20:00,50.6304516666667,-96.980775,8.2,9.6,101,977.71,2.7,97,2.88,0.0,1005.04,90.0
2018-11-05 20:10,50.6304533333333,-96.9807766666667,7.8,8.9,98,977.69,2.7,97,2.88,0.0,1005.02,90.0
2018-11-05 20:20,50.6304533333333,-96.9807733333333,7.7,9.0,97,977.64,2.6,96,2.89,0.0,1004.97,90.0
2018-11-05 20:30,50.6304533333333,-96.9807733333333,7.1,8.4,95,977.63,2.6,96,2.90,0.0,1004.97,90.0
2018-11-05 20:40,50.6304533333333,-96.9807716666667,6.8,8.9,89,977.56,3.0,92,2.90,0.0,1004.87,90.0
2018-11-05 20:50,50.6304533333333,-96.9807716666667,6.8,8.3,90,977.52,3.3,90,2.91,0.0,1004.82,90.0
2018-11-05 21:00,50.6304533333333,-96.98077,7.4,8.8,97,977.49,3.1,91,2.92,0.0,1004.80,0.0
2018-11-05 21:10,50.6304533333333,-96.9807683333333,7.4,8.6,95,977.49,2.7,93,2.92,0.0,1004.81,0.0
2018-11-05 21:20,50.6304533333333,-96.9807683333333,7.3,8.5,102,977.47,2.6,95,2.93,0.0,1004.79,0.0
2018-11-05 21:30,50.6304533333333,-96.98077,7.0,8.5,102,977.46,2.5,96,2.94,0.0,1004.79,0.0
2018-11-05 21:40,50.6304533333333,-96.9807683333333,7.1,8.3,106,977.49,2.5,95,2.94,0.0,1004.81,0.0
2018-11-05 21:50,50.6304533333333,-96.9807683333333,6.1,7.4,108,977.55,2.5,95,2.94,0.0,1004.86,0.0
2018-11-05 22:00,50.63044,-96.9807633333333,5.7,6.9,106,977.60,2.5,97,2.95,0.0,1004.92,142.0
2018-11-05 22:10,50.63044,-96.9807683333333,6.0,7.6,110,977.63,2.5,97,2.96,0.0,1004.94,142.0
2018-11-05 22:20,50.6304416666667,-96.9807683333333,5.5,7.7,105,977.67,2.5,96,2.96,0.0,1004.99,142.0
2018-11-05 22:30,50.630445,-96.98077,5.2,7.2,96,977.69,2.6,93,2.96,0.0,1004.99,142.0
2018-11-05 22:40,50.630445,-96.9807683333333,3.7,6.2,103,977.74,2.5,93,2.96,0.0,1005.02,142.0
2018-11-05 22:50,50.630445,-96.9807683333333,3.7,5.6,128,977.84,2.4,90,2.97,0.0,1005.14,142.0
2018-11-05 23:00,50.6304466666667,-96.9807683333333,4.2,7.2,96,977.90,2.6,93,2.98,0.0,1005.21,167.4
2018-11-05 23:10,50.63046,-96.9807733333333,4.6,8.1,130,977.96,2.4,90,2.98,0.0,1005.30,167.4
2018-11-05 23:20,50.6304583333333,-96.9807716666667,4.5,6.9,156,978.00,1.9,88,2.99,0.0,1005.36,167.4
2018-11-05 23:30,50.6304533333333,-96.9807716666667,3.2,4.7,158,977.99,1.9,88,2.99,0.0,1005.36,167.4
